STARLINK-31840, 60127

Orbit data source: Space-Track

STARLINK-31840, 60127 is a payload satellite owned by SpaceX/Seattle (US) in LEO that was launched on Mon, 24 Jun 2024 UTC via an FALCON 9 launch vehicle from the Air Force Western Test Range (AFWTR). Payload-class satellites include a variety of spacecraft equipped with specific instruments for various scientific and technological missions. These include communications satellites like Starlink; space stations such as the ISS; scientific satellites like the Hubble; Earth observation satellites from companies like Planet Labs, Umbra, and HawkEye 360; GPS; miniature CubeSats for education and research; and military/defense satellites.

Loading next visibility...
Identifier
60127, 2024-118Q
Orbit
LEO
Last TLE update
15 hours ago
Origin
Manufacturer
SpaceX/Seattle
Mission
Operational Commercial Communications
Bus & Motor
STARLINK V2M, Unknown motor
Mass
730 kg wet, ~700 kg dry
Launch date (UTC)
2024-06-24 (1 year ago)
Launch vehicle
FALCON 9
Launch site
Air Force Western Test Range (AFWTR)
Object type
Payload
Rocket body
Debris
Shape & HBR
Box + 2 Pan, 29 m
Radar Cross Section
33.884 m², Large (>1 m²)

Expand to show TLE details & history

TLE from 15 hours ago
0 STARLINK-31840
1 60127U 24118Q   25181.82158428  .00000115  00000-0  16007-4 0  9992
2 60127  53.1601 116.6665 0001360  85.0235 275.0921 15.30192149 57135
Epoch: 2025-06-30T19:43Z
TLE epoch observation values (Epoch: 2025-06-30T19:43:04.881Z)
Latitude
-0.00004°
Longitude
-98.22975°
Altitude
476.056 km
Speed
7.629 km/s
True Right ascension
07h 46m 39s
True Declination
0° 00' 00"
Sunlit
Object was in daylight at epoch
Visualization orbit readout
Latitude
-6.27835°
Longitude
83.58267°
Altitude
477.339 km
Speed
7.628 km/s
Apparent Right ascension
16h 52m 57s
Apparent Declination
-50° 02' 55"
Sunlit
Object is in full shadow
Visualization observer readout
Local Sidereal Time
22:17:02
Azimuth
224.199° SW
Elevation
-24.521°
Doppler factor
1
Orbital elements
Apogee altitude
476.427 km
Perigee altitude
474.563 km
Semi-major axis
6,853.632 km
Eccentricity
0.00014
Inclination
53.1601°
RAAN
116.6665°
Arg. of periapsis
85.0235°
True anomaly
Unknown
Mean anomaly
275.0921°
Eccentric anomaly
Unknown
Mean motion
3.82527 °/min
Orbital period
94.11 mins
BSTAR
0.000016007
Loading maneuver chart data...
Loading SW <> Apogee altitude chart data...
Loading historical data...
Loading historical data...
Loading historical data...
Loading historical data...
Loading historical data...
Loading historical data...
Loading historical data...

STARLINK-31840 Visibility forecast

Observer location: undefined°, undefined°

Span
Click to sort rows by Start time (UTC) header in descending order
Start Az.
Max El. time (UTC)
Max El. Az.
Max El.
End time (UTC)
End Az.
5 mins2025-07-01 22:34:33.956Z246.783° WSW2025-07-01 22:36:33.956Z329.633° NNW41.96°2025-07-01 22:39:33.956Z43.339° NE
4 mins2025-07-02 03:31:33.956Z348.384° N2025-07-02 03:33:33.956Z30.139° NE18.554°2025-07-02 03:35:33.956Z66.934° ENE
5 mins2025-07-02 05:09:33.956Z304.669° NW2025-07-02 05:11:33.956Z218.74° SW44.326°2025-07-02 05:14:33.956Z136.588° SSE
|